Wind_Speed
0 0 1 1 2 2 2 3 4 3 3 2 3 3 3 3 3 3 4 4 4 4 4 4 4 4 5 6 6 6 6 7 7 7 7 7 7 7 7 8 8 8 8
1 1 1 2 3 3 4 4 4 4 4 4 4 3 3 4 3 3 4 5 5 5 4 5 5 5 5 6 7 7 7 7 8 8 8 9 9 9 9 9 9 9 9
2 2 2 3 3 4 5 5 5 5 5 5 5 5 5 5 4 4 5 5 5 5 6 6 6 6 6 7 8 8 8 8 8 9 9 9 9 9 10 10 10 10 10
3 3 3 3 4 5 5 5 6 6 6 6 7 7 6 6 6 6 6 6 7 7 7 7 7 8 8 8 8 8 8 8 9 10 10 10 10 11 11 11 11 11 11
4 4 4 5 5 5 5 6 6 7 8 8 8 8 8 8 7 7 8 8 8 8 8 8 8 8 8 8 9 9 9 8 9 10 11 11 11 11 12 12 12 12 12
5 5 5 6 6 6 5 6 7 7 8 9 8 9 9 9 9 9 9 9 9 9 9 8 8 8 8 8 9 9 9 9 10 10 11 11 11 12 12 12 13 13 13
6 6 7 7 7 6 6 7 7 8 8 9 9 9 9 9 9 9 9 9 10 10 9 9 8 8 8 8 8 8 9 9 10 10 11 11 12 12 12 12 12 12 13
7 7 7 8 7 7 7 8 8 8 8 9 9 9 9 10 10 10 10 11 11 11 10 9 9 8 8 8 8 8 8 9 9 9 10 10 11 11 12 12 13 13 13
7 8 8 8 8 8 8 9 8 8 9 9 9 9 10 10 11 11 11 11 11 11 10 9 8 8 8 7 7 7 7 8 8 8 9 9 10 11 11 12 12 13 13
8 8 9 8 8 9 9 9 9 9 9 9 10 10 10 11 11 11 12 12 11 11 10 9 8 8 7 7 6 6 7 7 7 8 8 9 10 11 11 12 12 12 13
8 9 9 8 9 9 9 9 9 9 9 10 10 10 10 10 10 10 11 11 11 10 9 9 8 8 7 7 6 6 6 7 7 7 8 9 9 9 10 11 11 11 12
8 8 8 8 9 9 8 9 9 9 9 10 10 10 10 11 11 10 10 10 9 8 9 9 8 8 7 7 6 6 6 6 6 6 6 7 8 9 9 10 10 10 10
7 8 8 8 8 8 8 8 8 8 9 9 9 9 10 10 10 9 8 8 8 8 8 8 8 8 7 6 6 6 6 6 6 6 6 6 7 7 7 8 8 9 9
8 7 8 8 8 8 8 8 8 8 9 9 9 9 9 9 9 8 8 8 9 9 9 8 8 7 7 7 7 6 6 6 6 6 6 6 7 7 7 7 8 8 9
8 8 8 8 8 8 8 8 8 8 8 8 8 8 8 8 7 7 7 7 8 9 9 8 8 8 7 7 7 6 6 6 6 6 6 6 6 6 7 7 7 8 9
9 8 8 8 8 8 8 8 8 8 7 7 7 7 7 7 7 6 6 6 6 7 8 8 8 8 7 7 6 6 6 5 5 5 6 6 6 6 6 7 7 8 8
9 9 8 8 8 8 8 8 8 7 7 7 7 7 8 8 7 7 6 6 7 7 7 8 8 7 7 6 6 5 5 5 4 5 5 5 6 6 6 6 6 7 7
9 10 9 9 9 8 8 8 7 7 7 7 7 7 7 7 7 6 6 6 6 6 6 6 7 6 6 6 5 5 5 4 4 4 4 5 5 5 5 5 6 6 7
10 10 10 10 9 9 8 8 8 7 7 7 7 7 6 6 6 6 6 6 6 6 6 7 7 6 6 6 5 5 4 4 4 4 3 3 4 5 5 5 5 5 6
11 10 10 10 10 9 9 8 8 7 7 7 7 7 7 6 6 6 6 6 6 6 6 6 6 6 6 5 5 5 4 4 4 3 3 3 4 4 4 5 5 6 6
11 11 11 10 10 10 9 8 8 8 7 7 7 7 6 6 6 6 6 6 6 6 5 5 5 5 5 5 5 4 4 3 3 3 3 3 3 3 4 5 5 5 6
12 12 11 10 10 10 10 9 8 8 7 7 6 5 6 6 6 6 6 6 6 6 5 5 5 5 5 5 4 4 3 3 3 2 2 3 3 3 4 5 5 5 6
12 12 12 11 10 10 10 10 9 8 8 6 5 5 5 5 6 6 6 6 6 6 5 5 5 5 5 4 4 3 3 2 2 2 2 2 3 4 4 4 5 5 6
12 12 12 11 11 11 11 10 10 10 9 7 7 6 6 5 6 6 6 6 6 6 6 5 5 5 4 4 4 3 3 2 2 2 2 2 3 4 4 4 4 4 5
13 12 12 11 11 11 10 10 10 9 9 8 7 7 6 6 6 6 6 7 6 6 6 5 5 5 4 3 3 3 3 2 2 2 2 3 3 4 4 4 4 5 5
12 12 12 11 11 11 11 10 9 9 9 8 8 7 7 7 7 7 6 6 6 6 6 5 5 5 4 4 4 3 3 3 3 3 3 3 3 3 3 4 4 5 5
Wind_Direction
69 219 252 273 284 280 270 257 248 256 256 245 246 246 239 244 238 234 222 223 225 228 232 230 236 247 248 245 245 248 248 248 252 253 253 255 255 253 255 255 259 264 267
6 344 296 294 288 273 264 263 259 260 254 250 252 256 251 244 240 244 235 233 230 234 240 240 249 257 258 253 253 255 252 254 254 254 255 256 260 259 257 257 259 261 264
310 310 300 298 292 285 276 269 265 263 259 254 255 256 254 250 249 249 249 241 238 244 250 248 253 256 257 258 258 257 255 254 255 256 257 259 262 262 261 262 262 261 262
291 292 291 293 291 283 279 276 268 261 256 255 256 257 256 255 253 250 256 251 250 252 254 254 256 258 258 260 261 258 258 260 257 258 258 260 261 262 263 264 266 263 263
285 284 284 284 286 280 278 277 272 263 257 256 258 259 262 262 259 256 260 259 255 254 253 254 256 259 260 262 261 258 258 262 262 261 258 259 263 263 266 268 265 266 264
276 277 281 283 282 278 275 270 269 267 262 258 259 260 261 263 262 260 261 261 256 255 251 252 255 258 259 263 261 258 258 263 263 263 262 262 264 264 267 269 269 269 268
273 275 281 281 277 274 270 268 267 262 263 262 259 260 262 262 262 262 262 261 258 257 253 250 251 253 256 259 261 259 260 263 262 262 262 263 265 266 268 270 269 271 269
277 278 280 279 277 274 271 272 271 264 263 262 260 260 262 264 264 263 261 262 259 259 259 253 249 248 249 252 257 259 260 262 262 262 263 265 266 267 268 268 270 270 270
280 280 279 279 279 278 275 270 268 270 267 262 260 261 265 268 267 266 262 260 258 260 259 257 254 251 253 256 259 259 259 263 265 266 267 267 268 269 269 268 270 269 269
279 281 281 278 279 278 278 272 268 268 269 268 267 265 267 270 269 266 261 258 253 254 258 259 256 255 256 258 262 264 259 263 270 269 268 269 271 271 271 270 270 270 269
280 280 280 281 280 280 277 272 269 267 269 269 268 267 267 268 267 264 259 256 253 253 254 254 251 256 255 252 257 263 263 266 271 270 266 267 273 275 272 271 270 269 269
283 281 280 280 281 281 276 272 270 270 271 272 271 267 266 269 268 267 257 250 249 249 249 246 247 249 250 250 252 258 262 266 274 274 272 274 278 277 278 276 272 270 270
286 284 282 281 282 282 277 272 271 272 271 271 271 268 266 266 264 260 256 250 246 246 244 240 240 245 247 248 250 253 260 268 274 275 276 280 281 280 281 283 282 278 277
286 284 284 284 285 284 280 274 273 275 276 272 269 268 265 264 260 254 251 250 246 244 243 241 235 239 244 246 247 251 259 267 268 273 275 279 281 281 285 288 288 287 284
285 282 283 284 287 285 280 275 274 274 273 272 270 270 267 263 257 247 242 244 243 243 241 237 232 237 244 244 247 253 259 263 266 266 267 272 279 284 289 289 290 290 290
292 288 286 286 288 286 279 274 273 272 271 271 270 268 262 259 252 245 241 240 240 237 235 232 234 238 237 243 248 249 249 254 258 262 267 272 281 289 291 291 292 296 298
294 293 287 289 286 282 279 276 273 268 270 271 269 264 259 253 249 245 242 239 236 234 232 232 231 227 228 233 236 235 242 248 255 267 270 273 282 290 295 296 295 296 297
295 293 287 286 284 279 275 272 269 267 268 265 266 262 255 247 243 239 239 235 231 228 227 224 220 216 220 226 231 235 239 247 257 269 275 275 284 290 296 295 299 300 302
297 294 290 286 282 278 274 270 266 273 268 262 261 255 245 244 239 233 229 229 224 219 215 217 219 217 219 223 231 232 232 239 254 259 269 285 294 298 301 304 312 315 315
292 292 290 286 279 274 272 270 270 269 269 263 258 251 242 242 236 231 226 224 217 211 212 214 215 215 217 219 222 221 223 232 246 258 275 291 301 310 321 327 328 326 323
290 289 289 285 276 271 268 268 269 267 266 262 257 248 243 238 228 226 226 221 212 208 205 209 212 212 212 213 214 213 219 232 247 253 275 294 300 308 319 327 327 329 326
288 287 289 283 276 270 268 263 261 261 261 259 253 247 237 231 225 221 213 202 199 198 204 211 213 204 204 202 201 205 209 229 245 258 282 298 310 318 325 325 322 329 331
286 285 285 279 276 270 266 261 254 253 256 253 244 238 232 229 223 214 205 201 198 198 203 206 206 204 203 199 200 203 209 214 224 254 278 297 310 318 320 326 330 330 333
287 284 280 277 273 269 265 258 253 251 249 247 243 236 230 223 219 217 213 208 198 196 199 201 199 206 207 203 198 203 213 220 235 257 275 294 305 312 317 317 321 325 330
284 282 278 274 270 265 262 255 251 247 242 241 236 230 227 223 217 214 214 210 201 196 191 194 200 201 200 202 206 213 219 227 241 260 278 296 304 315 319 319 320 324 328
284 282 277 272 268 258 256 252 249 242 237 235 235 226 226 224 216 207 202 200 195 193 192 196 196 199 202 210 217 221 226 232 244 263 279 293 304 311 316 317 318 319 324
Height
5890 5889 5889 5889 5888 5888 5887 5887 5887 5887 5887 5887 5886 5886 5886 5886 5886 5886 5885 5885 5885 5885 5885 5885 5886 5886 5886 5886 5886 5886 5886 5886 5886 5886 5886 5887 5887 5887 5887 5887 5887 5887 5887
5890 5889 5888 5888 5888 5887 5887 5887 5886 5886 5886 5886 5886 5885 5885 5885 5885 5885 5885 5884 5884 5884 5885 5884 5885 5885 5885 5885 5885 5885 5885 5885 5885 5885 5885 5885 5885 5885 5886 5886 5885 5886 5886
5889 5888 5888 5887 5887 5886 5886 5886 5885 5885 5885 5885 5885 5885 5884 5884 5884 5884 5884 5883 5883 5883 5883 5883 5883 5883 5883 5883 5883 5883 5883 5883 5884 5884 5884 5884 5884 5884 5884 5884 5884 5884 5884
5888 5887 5887 5886 5886 5885 5885 5884 5884 5884 5884 5884 5884 5883 5883 5883 5882 5882 5882 5882 5882 5882 5882 5882 5882 5882 5882 5882 5882 5881 5882 5882 5882 5882 5882 5882 5882 5882 5882 5882 5882 5882 5882
5887 5886 5886 5885 5885 5884 5884 5883 5883 5883 5882 5882 5882 5882 5882 5881 5881 5881 5881 5881 5880 5880 5880 5880 5880 5880 5880 5880 5880 5880 5880 5880 5880 5880 5880 5880 5880 5880 5880 5880 5880 5880 5880
5885 5885 5884 5884 5883 5883 5882 5882 5881 5881 5881 5880 5880 5880 5880 5880 5879 5879 5879 5879 5879 5878 5878 5878 5878 5878 5878 5878 5878 5878 5878 5878 5878 5878 5878 5878 5878 5878 5878 5878 5878 5878 5878
5884 5883 5883 5882 5882 5881 5880 5880 5880 5879 5879 5879 5878 5878 5878 5878 5878 5877 5877 5877 5877 5876 5876 5876 5876 5876 5876 5876 5876 5876 5876 5876 5876 5876 5876 5876 5876 5876 5876 5876 5876 5876 5875
5882 5882 5881 5881 5880 5879 5879 5878 5878 5878 5877 5877 5877 5876 5876 5876 5876 5876 5875 5875 5875 5875 5874 5874 5874 5874 5874 5874 5874 5874 5874 5874 5874 5874 5874 5874 5874 5874 5874 5873 5873 5873 5873
5880 5880 5879 5879 5878 5878 5877 5877 5876 5876 5875 5875 5875 5874 5874 5874 5874 5873 5873 5873 5873 5872 5872 5872 5872 5872 5873 5873 5873 5873 5873 5873 5872 5872 5872 5872 5872 5871 5871 5871 5871 5871 5871
5879 5878 5877 5876 5876 5876 5875 5875 5874 5874 5873 5873 5873 5872 5872 5872 5871 5871 5871 5871 5870 5870 5870 5870 5871 5871 5871 5871 5871 5871 5871 5871 5870 5870 5870 5870 5870 5869 5869 5869 5868 5868 5868
5877 5876 5875 5875 5874 5873 5873 5872 5872 5872 5871 5871 5870 5870 5870 5869 5869 5868 5868 5868 5868 5868 5868 5869 5869 5870 5869 5870 5870 5870 5869 5869 5869 5869 5868 5868 5867 5867 5867 5866 5866 5866 5865
5875 5874 5873 5873 5872 5871 5871 5870 5870 5869 5869 5869 5868 5868 5868 5867 5867 5866 5866 5866 5866 5866 5867 5867 5867 5868 5868 5868 5868 5868 5868 5868 5867 5867 5867 5866 5866 5865 5865 5864 5864 5863 5863
5873 5872 5871 5871 5870 5869 5869 5868 5868 5867 5867 5866 5866 5866 5865 5865 5865 5864 5864 5864 5864 5865 5865 5866 5866 5866 5866 5867 5867 5867 5866 5866 5866 5866 5865 5865 5864 5864 5863 5863 5862 5862 5861
5871 5870 5870 5869 5868 5868 5867 5866 5866 5865 5865 5864 5864 5864 5863 5863 5863 5863 5863 5863 5863 5863 5863 5864 5864 5865 5865 5865 5865 5865 5865 5865 5865 5864 5864 5863 5863 5863 5862 5861 5861 5860 5860
5869 5868 5868 5867 5866 5866 5865 5864 5864 5864 5863 5863 5862 5862 5861 5861 5861 5861 5861 5861 5861 5861 5862 5862 5863 5863 5863 5864 5864 5864 5864 5864 5864 5863 5863 5862 5862 5861 5860 5860 5859 5858 5858
5867 5866 5866 5865 5864 5864 5863 5863 5862 5862 5861 5861 5860 5860 5860 5859 5859 5860 5860 5860 5860 5860 5860 5861 5861 5862 5862 5862 5863 5863 5863 5863 5862 5862 5862 5861 5861 5860 5859 5858 5857 5857 5856
5866 5865 5864 5863 5863 5862 5861 5861 5861 5860 5860 5859 5859 5858 5858 5858 5858 5858 5858 5859 5859 5859 5859 5860 5860 5860 5861 5861 5862 5862 5862 5862 5861 5861 5861 5860 5859 5859 5858 5857 5856 5855 5854
5864 5863 5862 5861 5861 5860 5860 5859 5859 5858 5858 5857 5857 5856 5856 5856 5856 5857 5857 5857 5857 5858 5858 5859 5859 5859 5860 5860 5861 5861 5861 5861 5861 5860 5860 5859 5858 5858 5857 5856 5855 5854 5853
5862 5861 5860 5859 5859 5858 5858 5857 5857 5857 5856 5855 5855 5855 5855 5855 5855 5855 5855 5856 5856 5857 5857 5858 5858 5859 5859 5859 5860 5860 5860 5860 5860 5859 5859 5858 5857 5856 5855 5855 5854 5853 5852
5860 5859 5858 5857 5857 5856 5856 5855 5855 5855 5854 5854 5854 5853 5853 5853 5854 5854 5854 5855 5855 5856 5856 5857 5857 5858 5858 5859 5859 5859 5859 5859 5859 5859 5858 5858 5857 5856 5855 5854 5853 5852 5851
5858 5857 5856 5855 5855 5854 5854 5853 5853 5853 5853 5852 5852 5852 5852 5852 5852 5853 5853 5854 5854 5855 5856 5856 5857 5857 5858 5858 5858 5859 5859 5859 5858 5858 5858 5857 5856 5855 5855 5854 5852 5851 5850
5855 5855 5854 5853 5853 5852 5852 5852 5851 5851 5851 5851 5851 5851 5850 5851 5851 5852 5852 5853 5854 5854 5855 5856 5856 5857 5857 5857 5858 5858 5858 5859 5858 5858 5857 5857 5856 5855 5854 5853 5852 5850 5849
5853 5852 5851 5851 5850 5850 5850 5850 5849 5849 5849 5850 5850 5850 5850 5850 5850 5851 5852 5852 5853 5854 5855 5855 5856 5856 5857 5857 5857 5858 5858 5858 5858 5857 5857 5856 5856 5855 5854 5853 5851 5850 5848
5850 5849 5849 5848 5848 5848 5847 5847 5847 5848 5848 5848 5849 5849 5849 5849 5850 5850 5851 5852 5852 5853 5854 5854 5855 5856 5856 5856 5856 5857 5857 5857 5857 5857 5857 5856 5855 5854 5853 5852 5851 5850 5848
5847 5846 5846 5846 5845 5845 5845 5845 5845 5846 5846 5847 5847 5848 5848 5848 5849 5850 5850 5851 5852 5852 5853 5854 5855 5855 5856 5856 5856 5856 5856 5856 5856 5856 5856 5856 5855 5854 5853 5852 5850 5849 5847
5844 5844 5843 5843 5842 5842 5843 5843 5843 5844 5844 5845 5846 5846 5847 5847 5848 5849 5849 5850 5851 5852 5853 5853 5854 5855 5855 5855 5856 5856 5856 5856 5856 5856 5855 5854 5854 5853 5852 5851 5850 5848 5847